[[{"header":{"parameterUnit":"m.s-1","parameterCategory":1,"la1":30.2991,"la2":30.254,"lo1":-89.0895,"lo2":-89.0444,"dy":0.0017,"dx":0.0017,"nx":28,"ny":28,"refTime":"2024-03-30T21:00:00:Z","depth":0,"parameterNumber":2,"parameterNumberName":"U-component_of_WINDS"},"data":[0,0,0,0,0,0,0,0,0,0,0,0,0,0,0,0,0,0,0,0,0,0,0,0,0,0,0,0,0,0,0,0,0,0,0,0,0,0,0,0,0,0,0,0,0,0,0,0,0,0,0,0,0,0,0,0,0,0,-2.493,-2.493,0,-2.4973,-2.4973,-2.4974,-2.4942,-2.4941,-2.4939,-2.4938,-2.4981,-2.4983,-2.4986,0,0,0,0,0,0,0,0,0,0,0,0,0,-2.482,-2.4822,-2.493,-2.493,-2.4931,-2.4973,-2.4973,-2.4974,-2.4942,-2.4941,-2.4939,-2.4937,-2.498,-2.4983,-2.4986,0,0,0,0,0,0,0,0,0,0,0,0,0,-2.4866,-2.4823,-2.493,-2.492,-2.492,-2.4972,-2.4973,-2.4974,-2.4943,-2.4941,-2.4939,-2.4937,-2.4979,-2.4983,-2.4986,-2.505,0,0,-2.4997,-2.4999,0,0,0,0,0,0,0,0,-2.4863,-2.487,-2.4921,-2.4921,-2.4921,-2.495,-2.495,-2.4999,-2.4943,-2.4934,-2.4938,-2.4936,-2.4972,-2.4976,-2.4989,-2.5052,-2.5054,-2.4998,-2.5,-2.5001,-2.5002,0,0,0,0,0,0,0,-2.486,-2.4868,-2.4947,-2.4922,-2.4922,-2.4914,-2.4918,-2.4959,-2.4964,-2.4935,-2.4933,-2.4938,-2.4972,-2.4985,-2.499,-2.5055,-2.4998,-2.5001,-2.5003,-2.5004,-2.517,-2.5173,0,0,0,0,0,0,-2.4858,-2.4865,-2.4945,-2.4948,-2.4886,-2.4917,-2.4922,-2.4943,-2.4964,-2.4965,-2.494,-2.4936,-2.498,-2.4985,-2.4991,-2.5065,-2.5001,-2.5005,-2.5007,-2.5168,-2.5171,-2.5173,0,0,0,0,0,0,-2.4855,-2.4865,-2.4944,-2.4906,-2.4915,-2.4921,-2.4945,-2.4945,-2.4958,-2.4968,-2.4968,-2.4953,-2.4979,-2.4986,-2.5035,-2.5066,-2.5006,-2.501,-2.5166,-2.5169,-2.5172,-2.5215,0,0,0,0,0,0,-2.4852,-2.4865,-2.4889,-2.4907,-2.4918,-2.4988,-2.4947,-2.4947,-2.4965,-2.4961,-2.498,-2.4981,-2.4978,-2.503,-2.5039,-2.507,-2.5013,-2.5163,-2.5167,-2.5171,-2.5211,-2.5219,-2.5227,0,0,0,0,0,-2.4849,-2.49,-2.4891,-2.49,-2.4948,-2.499,-2.4996,-2.4991,-2.4967,-2.4992,-2.4998,-2.4981,-2.5062,-2.5035,-2.5045,-2.5078,-2.5161,-2.5166,-2.5171,-2.5207,-2.5218,-2.5227,0,0,0,0,0,0,-2.4885,-2.4902,-2.4892,-2.495,-2.4969,-2.4984,-2.5015,-2.5002,-2.5028,-2.5023,-2.5016,-2.502,-2.5072,-2.508,-2.505,-2.514,-2.5108,-2.5115,-2.5132,-2.5142,-2.515,-2.5145,-2.5016,0,0,0,0,0,-2.49,-2.4933,-2.4945,-2.4996,-2.5006,-2.5009,-2.5027,-2.5021,-2.504,-2.5047,-2.5057,-2.5075,-2.5105,-2.5124,-2.5152,-2.5213,-2.5215,-2.524,-2.5248,-2.5255,-2.526,-2.5291,-2.5301,-2.519,-2.519,-2.519,0,0,-2.4931,-2.4944,-2.4965,-2.5003,-2.5017,-2.505,-2.5015,-2.5052,-2.5076,-2.5053,-2.5099,-2.5107,-2.5127,-2.5182,-2.5207,-2.5191,-2.5292,-2.5261,-2.5266,-2.5268,-2.5297,-2.5307,-2.5317,-2.5193,-2.5193,-2.5192,0,0,-2.5004,-2.5018,-2.506,-2.5075,-2.5096,-2.5098,-2.5108,-2.5126,-2.513,-2.5177,-2.516,-2.5188,-2.524,-2.5254,-2.5268,-2.5347,-2.5331,-2.5356,-2.5397,-2.5427,-2.5435,-2.5443,-2.5468,-2.5478,-2.5362,-2.5362,-2.5362,0,-2.5039,-2.5088,-2.5084,-2.5121,-2.5138,-2.5119,-2.5161,-2.5176,-2.5205,-2.5216,-2.5199,-2.5262,-2.5274,-2.5331,-2.535,-2.5363,-2.5373,-2.5352,-2.5435,-2.5442,-2.5449,-2.5473,-2.5483,-2.5365,-2.5365,-2.5364,-2.5364,0,-2.513,-2.5164,-2.5196,-2.5224,-2.5245,-2.5285,-2.5285,-2.5307,-2.53,-2.5303,-2.5351,-2.5365,-2.5395,-2.5409,-2.5403,-2.5464,-2.5453,-2.5436,-2.5402,-2.5463,-2.5485,-2.5494,-2.5369,-2.5368,-2.5367,-2.5366,0,0,-2.5225,-2.525,-2.5262,-2.5273,-2.5296,-2.5322,-2.5361,-2.539,-2.5407,-2.5429,-2.5459,-2.5504,-2.5487,-2.5503,-2.5499,-2.5525,-2.5583,-2.5504,-2.5504,-2.5516,-2.5649,-2.5661,-2.5672,-2.5575,-2.5576,-2.5578,-2.5647,0,-2.5296,-2.5363,-2.536,-2.5423,-2.5453,-2.5436,-2.547,-2.5487,-2.5491,-2.5518,-2.5523,-2.5553,-2.553,-2.5539,-2.5565,-2.5571,-2.561,-2.5566,-2.5601,-2.5603,-2.5594,-2.5684,-2.5696,-2.576,-2.5656,-2.5657,-2.5659,0,-2.5388,-2.5412,-2.5477,-2.5494,-2.5506,-2.5536,-2.5562,-2.5588,-2.5607,-2.5608,-2.5626,-2.5617,-2.5656,-2.5624,-2.5675,-2.5646,-2.566,-2.5666,-2.5668,-2.5669,-2.5632,-2.5684,-2.5781,-2.579,-2.5673,-2.5672,-2.5671,0,-2.5448,-2.5496,-2.5541,-2.5552,-2.5573,-2.5594,-2.5604,-2.5621,-2.5638,-2.5661,-2.5672,-2.5699,-2.5713,-2.5734,-2.5733,-2.571,-2.5784,-2.5753,-2.5785,-2.5785,-2.5799,-2.5797,-2.5896,-2.5813,-2.5813,-2.5813,-2.5813,0,-2.5526,-2.5566,-2.5567,-2.5595,-2.5639,-2.5635,-2.5679,-2.5686,-2.5701,-2.5729,-2.5717,-2.5743,-2.5741,-2.5768,-2.5767,-2.5809,-2.5816,-2.5817,-2.5816,-2.5816,-2.5816,-2.5823,-2.5818,-2.5816,-2.5815,-2.5815,-2.5814,0,-2.5598,-2.5602,-2.5649,-2.5665,-2.567,-2.5701,-2.5714,-2.574,-2.5744,-2.5779,-2.5787,-2.5793,-2.5824,-2.5825,-2.5861,-2.586,-2.591,-2.5905,-2.5903,-2.5901,-2.5932,-2.5928,-2.6037,-2.605,-2.5961,-2.5962,-2.5963,0,-2.5647,-2.5677,-2.5696,-2.5714,-2.5725,-2.5754,-2.5771,-2.5769,-2.5788,-2.5811,-2.5833,-2.5863,-2.5886,-2.5935,-2.5942,-2.5969,-2.5963,-2.5999,-2.5967,-2.5966,-2.596,-2.5957,-2.5959,-2.6005,-2.6006,-2.6007,-2.6007,0,-2.5732,-2.5731,-2.5757,-2.5783,-2.5804,-2.5825,-2.5844,-2.5859,-2.5859,-2.5881,-2.5912,-2.593,-2.5965,-2.5994,-2.602,-2.6029,-2.6018,-2.6018,-2.6026,-2.6025,-2.6022,-2.6021,-2.5917,-2.6015,-2.6014,-2.6013,-2.6013,-2.6013,-2.5791,-2.5817,-2.5834,-2.5862,-2.5876,-2.5894,-2.5918,-2.5925,-2.5951,-2.598,-2.5978,-2.6011,-2.6028,-2.6062,-2.6074,-2.6099,-2.6087,-2.61,-2.6102,-2.6105,-2.6106,-2.602,-2.6105,-2.6104,-2.6104,-2.6104,-2.6104,0,-2.5873,-2.5883,-2.591,-2.5936,-2.5959,-2.5947,-2.5968,-2.5987,-2.6016,-2.6034,-2.6057,-2.6091,-2.6119,-2.6129,-2.6155,-2.6174,-2.6169,-2.6181,-2.6178,-2.618,-2.6118,-2.6106,-2.6184,-2.6184,-2.6184,-2.6184,-2.6184,-2.6184,-2.5918,-2.5959,-2.5961,-2.6009,-2.6019,-2.6051,-2.6064,-2.608,-2.6093,-2.6133,-2.6155,-2.6162,-2.6176,-2.6203,-2.6228,-2.623,-2.6239,-2.6252,-2.6252,-2.6193,-2.6185,-2.6177,-2.6166,-2.6255,-2.6255,-2.6311,-2.6312,-2.6312]},{"header":{"parameterUnit":"m.s-1","parameterCategory":1,"la1":30.2991,"la2":30.254,"lo1":-89.0895,"lo2":-89.0444,"dy":0.0017,"dx":0.0017,"nx":28,"ny":28,"refTime":"2024-03-30T21:00:00:Z","depth":0,"parameterNumber":3,"parameterNumberName":"V-component_of_WINDS"},"data":[0,0,0,0,0,0,0,0,0,0,0,0,0,0,0,0,0,0,0,0,0,0,0,0,0,0,0,0,0,0,0,0,0,0,0,0,0,0,0,0,0,0,0,0,0,0,0,0,0,0,0,0,0,0,0,0,0,0,3.8443,3.8443,0,3.8415,3.8414,3.8414,3.847,3.8472,3.8474,3.8475,3.8437,3.8435,3.8432,0,0,0,0,0,0,0,0,0,0,0,0,0,3.8541,3.8539,3.8444,3.8443,3.8443,3.8415,3.8414,3.8414,3.847,3.8472,3.8474,3.8476,3.8438,3.8435,3.8432,0,0,0,0,0,0,0,0,0,0,0,0,0,3.8504,3.8539,3.8444,3.8467,3.8469,3.8415,3.8414,3.8414,3.8469,3.8472,3.8475,3.8477,3.8439,3.8435,3.8431,3.835,0,0,3.8419,3.8417,0,0,0,0,0,0,0,0,3.8506,3.85,3.8464,3.8466,3.8468,3.8449,3.8435,3.8392,3.8468,3.8469,3.8475,3.8479,3.8438,3.8435,3.8423,3.8348,3.8346,3.8418,3.8416,3.8414,3.8413,0,0,0,0,0,0,0,3.8509,3.8502,3.8432,3.8464,3.8466,3.8478,3.8476,3.8427,3.8438,3.8469,3.8473,3.8469,3.844,3.8427,3.8422,3.8346,3.8418,3.8415,3.8412,3.8411,3.8206,3.8203,0,0,0,0,0,0,3.8509,3.8504,3.8433,3.8431,3.8494,3.8474,3.8471,3.8452,3.8439,3.844,3.8467,3.8472,3.8432,3.8427,3.8421,3.8327,3.8414,3.841,3.8408,3.8209,3.8205,3.8202,0,0,0,0,0,0,3.8511,3.8502,3.8434,3.8469,3.8461,3.8469,3.8447,3.845,3.8437,3.8437,3.8439,3.8452,3.8434,3.8427,3.8368,3.8326,3.8408,3.8405,3.8212,3.8208,3.8203,3.8136,0,0,0,0,0,0,3.8514,3.8503,3.8473,3.8468,3.8459,3.8383,3.8444,3.8447,3.8431,3.8437,3.8424,3.8424,3.8436,3.8374,3.8364,3.8322,3.8401,3.8216,3.821,3.8205,3.8142,3.813,3.8119,0,0,0,0,0,3.8517,3.8452,3.8471,3.8462,3.8422,3.8381,3.8375,3.8393,3.8427,3.8396,3.8397,3.8424,3.8333,3.8368,3.8357,3.8313,3.8219,3.8212,3.8205,3.8147,3.8132,3.812,0,0,0,0,0,0,3.8448,3.8452,3.8473,3.8405,3.8393,3.839,3.8352,3.8376,3.8351,3.8358,3.8378,3.8375,3.8312,3.8307,3.8346,3.8235,3.8281,3.8272,3.8241,3.8226,3.8215,3.8218,3.8398,0,0,0,0,0,3.8426,3.8395,3.8398,3.8338,3.8332,3.8343,3.8325,3.8341,3.8327,3.8321,3.8318,3.8302,3.827,3.8248,3.8218,3.8142,3.814,3.8106,3.8095,3.8086,3.8077,3.8039,3.8024,3.818,3.818,3.818,0,0,3.8378,3.8377,3.8354,3.8325,3.8317,3.8282,3.8338,3.8298,3.8272,3.8314,3.826,3.8257,3.8241,3.8174,3.8144,3.8167,3.8034,3.8077,3.807,3.8066,3.803,3.8015,3.8002,3.8175,3.8176,3.8177,0,0,3.8274,3.827,3.8221,3.8213,3.8202,3.821,3.8198,3.8193,3.8194,3.8141,3.8173,3.8141,3.8085,3.8073,3.8059,3.7955,3.7979,3.7944,3.7885,3.7847,3.7834,3.7824,3.7787,3.7774,3.7936,3.7936,3.7936,0,3.8216,3.8167,3.8191,3.8151,3.8137,3.8178,3.8128,3.8118,3.8096,3.8085,3.8112,3.8045,3.8036,3.7969,3.7944,3.7931,3.7918,3.7945,3.7835,3.7824,3.7814,3.778,3.7766,3.7932,3.7932,3.7933,3.7933,0,3.8096,3.8062,3.8023,3.8006,3.7988,3.7942,3.7958,3.7937,3.7954,3.796,3.7906,3.7898,3.7869,3.7854,3.7868,3.7788,3.7803,3.7832,3.7879,3.7795,3.7763,3.775,3.7926,3.7927,3.7929,3.793,0,0,3.7945,3.7945,3.7931,3.7924,3.7917,3.789,3.7847,3.7822,3.7803,3.7787,3.7751,3.7705,3.7733,3.7718,3.7732,3.7699,3.7618,3.7732,3.7732,3.7712,3.7531,3.7509,3.7493,3.7635,3.7633,3.7631,3.7532,0,3.7843,3.7772,3.7794,3.7721,3.7691,3.7731,3.7693,3.7684,3.7688,3.7662,3.7666,3.7633,3.7672,3.7664,3.7633,3.7635,3.7582,3.7642,3.7601,3.7599,3.7604,3.7476,3.7453,3.736,3.752,3.7518,3.7516,0,3.7714,3.7698,3.7623,3.7624,3.7612,3.7578,3.7558,3.7532,3.7523,3.7529,3.7514,3.7536,3.7492,3.7541,3.7482,3.7522,3.7507,3.7505,3.7502,3.7498,3.7552,3.7469,3.7331,3.7317,3.7496,3.7498,3.7499,0,3.7613,3.7572,3.7523,3.7516,3.7515,3.7491,3.7489,3.7483,3.7467,3.7449,3.7439,3.7415,3.7401,3.7382,3.7396,3.743,3.7335,3.7384,3.7338,3.7337,3.7315,3.7316,3.7172,3.7305,3.7305,3.7305,3.7306,0,3.7496,3.7449,3.7478,3.7448,3.7396,3.7422,3.737,3.7372,3.7367,3.7337,3.7369,3.734,3.7361,3.7333,3.7344,3.7294,3.7287,3.729,3.7294,3.7288,3.7287,3.7277,3.7284,3.7302,3.7303,3.7303,3.7304,0,3.7374,3.7392,3.7341,3.7346,3.7346,3.7308,3.7312,3.7283,3.7292,3.7254,3.7246,3.7258,3.7228,3.7242,3.7208,3.7216,3.7152,3.7163,3.7156,3.7159,3.7112,3.7116,3.6956,3.6937,3.7082,3.7081,3.7079,0,3.7298,3.7264,3.7267,3.7251,3.7248,3.7221,3.7207,3.7231,3.7214,3.7203,3.7176,3.7149,3.7129,3.7078,3.7082,3.7058,3.7069,3.7015,3.7065,3.7061,3.7069,3.7071,3.7068,3.7004,3.7003,3.7001,3.7,0,3.7163,3.7175,3.7154,3.7137,3.712,3.7107,3.7096,3.7081,3.7105,3.7084,3.7056,3.704,3.7009,3.6982,3.6961,3.6957,3.6982,3.6985,3.6973,3.6966,3.6963,3.6965,3.7128,3.6988,3.6989,3.699,3.6991,3.6991,3.7062,3.7034,3.7033,3.701,3.7006,3.6996,3.6971,3.6978,3.6955,3.6934,3.6949,3.6915,3.6908,3.6883,3.6877,3.685,3.6871,3.6853,3.6849,3.6844,3.6838,3.6968,3.6846,3.6846,3.6846,3.6847,3.6847,0,3.6929,3.6931,3.691,3.6896,3.6878,3.6907,3.6898,3.688,3.6851,3.6844,3.6825,3.6793,3.6768,3.6772,3.6749,3.6727,3.6738,3.672,3.6721,3.672,3.682,3.6833,3.6711,3.6711,3.6711,3.6711,3.6711,3.6711,3.6858,3.6813,3.6825,3.6778,3.678,3.675,3.6742,3.6734,3.6729,3.6692,3.6673,3.6677,3.6675,3.6653,3.6631,3.6633,3.6622,3.66,3.6606,3.6699,3.6713,3.6726,3.6738,3.6598,3.6598,3.6508,3.6508,3.6507]}]]